Flag for Brazil Weather past 2 weeks in Porto Velho, Rondônia, Brazil

Now
75 °F

Scattered clouds.


Feels Like: 74 °F
Forecast: 75 / 89 °F
Wind: No wind

Location: Porto Velho Aeroporto

Current Time: Mar 28, 2015 at 8:29:44 AM

Latest Report: Mar 28, 2015 at 8:00 AM


Visibility: N/A

Pressure: 29.95 "Hg

Humidity: 94%

Dew point: 73 °F

Location of Porto VelhoLocation

Historic Weather in Porto Velho — Graph

°F

Porto Velho temperature yesterday

Maximum temperature yesterday: 91 °F (at 4:00 PM)
Minimum temperature yesterday: 73 °F (at 2:00 AM)
Average temperature yesterday: 80 °F

Past Weeks' High & Low Weather Summary

 TemperatureHumidityPressure
High91 °F (Mar 27, 4:00 PM)100% (Mar 14, 12:00 PM)29.98 "Hg (Mar 14, 12:00 PM)
Low41 °F (Mar 22, 6:00 PM)20% (Mar 19, 12:00 PM)29.68 "Hg (Mar 13, 4:00 PM)
Average77 °F87%29.86 "Hg
* Reported Mar 13 7:00 AM — Mar 28 7:00 AM, Porto Velho, Weather by CustomWeather, © 2015

Note: Actual official high and low records may vary slightly from our data, if they occured in-between our weather recording intervals... More about our weather records

Advertising

Porto Velho weather history for previous 24 hours

 ConditionsComfort  
Time TempWeatherWind HumidityBarometerVisibility
7:00 AM
Sat, Mar 28
73 °FPartly sunny.2 mph94%29.92 "HgN/A
6:00 AM73 °FLight rain. Passing clouds.2 mph94%29.92 "Hg5 mi
5:00 AM75 °FPassing clouds.7 mph94%29.92 "HgN/A
4:00 AM73 °FPassing clouds.5 mph94%29.89 "HgN/A
3:00 AM73 °FPassing clouds.6 mph94%29.92 "HgN/A
2:00 AM73 °FLight rain. Passing clouds.7 mph94%29.92 "Hg5 mi
1:00 AM73 °FHeavy rain. Passing clouds.6 mph94%29.95 "HgN/A
12:00 AM75 °FThunderstorms. Passing clouds.6 mph89%29.95 "HgN/A
11:00 PM
Fri, Mar 27
77 °FThunderstorms. Passing clouds.7 mph79%29.92 "HgN/A
10:00 PM79 °FThunderstorms. Passing clouds.6 mph74%29.89 "HgN/A
9:00 PM79 °FThundershowers. Passing clouds.No wind89%N/AN/A
8:00 PM79 °FPassing clouds.No wind89%29.83 "HgN/A
7:00 PM82 °FPassing clouds.2 mph74%29.80 "HgN/A
6:00 PM84 °FScattered showers. Scattered clouds.5 mph70%29.77 "HgN/A
5:00 PM90 °FScattered clouds.3 mph55%29.77 "HgN/A
4:00 PM91 °FScattered clouds.2 mph49%29.77 "HgN/A
3:00 PM90 °FScattered clouds.3 mph59%29.77 "HgN/A
2:00 PM90 °FScattered clouds.No wind63%29.83 "HgN/A
1:00 PM88 °FScattered clouds.5 mph59%29.89 "HgN/A
12:00 PM86 °FBroken clouds.6 mph66%29.92 "HgN/A
11:00 AM84 °FBroken clouds.5 mph74%29.95 "HgN/A
10:00 AM81 °FBroken clouds.5 mph79%29.95 "HgN/A
9:00 AM81 °FBroken clouds.2 mph84%29.95 "HgN/A
8:00 AM77 °FSunny.2 mph89%29.92 "Hg10 mi
Weather by CustomWeather, © 2015

See weather overviewHow to use our weather pages